Content
SEND FEEDBACK

Daily
Averages
Monthly
Summary
United States of America

PYGA BEACH, GUAM


Home > North America > United States > Guam
Elevation: 20 feet     Latitude: 13 17N     Longitude: 144 39E

WEATHER
 
SELECT A DAY
Number of Records: 352,394;   Date Range: 1/1/95 - 10/29/14
 
SHARE

PRINT THIS DATA

[ ← Previous Day ]
WEATHER ALMANAC - JULY 12, 2014
[ Next Day → ]
[ °C ]   °F
Weather ElementAverageHighLow
Temperature77.1 °F83.1 °F (9:58 am)73.4 °F (3:38 pm)
Dewpoint74.9 °F77 °F (12:13 am)73.2 °F (3:58 pm)
Humidity93.2 %100 % (6:08 am)75 % (10:58 am)
Barometer29.79 in29.87 in (1:23 am)29.72 in (12:58 pm)
Wind Speed9.8 mph17.3 mph (1:32 pm)
Wind Gust23 mph (9:55 am)
Weather ElementAverage
Visibility7.5 mi
Wind DirectionWSW (245.7 °)

Weather ElementTotal
Precipitation2.88 in
Cooling Degree Days13.3 (Base 65)
Growing Degree Days28.3 (Base 50)
Averaged from 200 records on July 12, 2014
WEATHER CONDITIONS BREAKOUT
WIND DIRECTION BREAKOUT
WEATHER BY HOUR - JULY 12, 2014
[ °C ]   °F
Local TimeTemperatureDewpointHumidityBarometerVisibilityWind DirectionWind SpeedGust SpeedPrecipitationEventsConditions
12:03 AM77.0 °F77.0 °F100 %29.87 in3.0 miNorth (350°)3.5 mphRainHeavy Rain
12:03 AM77.0 °F77.0 °F100 %29.87 in3.0 miNorth (350°)3.5 mphRainHeavy Rain
12:08 AM77.0 °F77.0 °F100 %29.86 in4.0 miNorth (350°)3.5 mphRainHeavy Rain
12:08 AM77.0 °F77.0 °F100 %29.86 in4.0 miNorth (350°)3.5 mphRainHeavy Rain
12:13 AM77.0 °F77.0 °F100 %29.86 in4.0 miNNW (330°)4.6 mphRainHeavy Rain
12:13 AM77.0 °F77.0 °F100 %29.86 in4.0 miNNW (330°)4.6 mphRainHeavy Rain
12:18 AM77.0 °F77.0 °F100 %29.86 in3.0 miNNW (330°)4.6 mphRainHeavy Rain
12:18 AM77.0 °F77.0 °F100 %29.86 in3.0 miNNW (330°)4.6 mphRainHeavy Rain
12:58 AM77.0 °F75.7 °F96 %29.81 in5.0 miWNW (300°)2.3 mph0.16 inRainRain
12:58 AM77.0 °F75.7 °F96 %29.81 in5.0 miWNW (300°)2.3 mph0.16 inRainRain
1:08 AM77.0 °F75.2 °F94 %29.84 in2.5 miWest (280°)2.3 mphRainHeavy Rain
1:08 AM77.0 °F75.2 °F94 %29.84 in2.5 miWest (280°)2.3 mphRainHeavy Rain
1:13 AM77.0 °F75.2 °F94 %29.84 in1.0 miCalmRainHeavy Rain
1:13 AM77.0 °F75.2 °F94 %29.84 in1.0 miCalmRainHeavy Rain
1:23 AM77.0 °F75.2 °F94 %29.83 in0.8 miCalmRainHeavy Rain
1:23 AM77.0 °F75.2 °F94 %29.83 in0.8 miCalmRainHeavy Rain
1:28 AM77.0 °F75.2 °F94 %29.84 in0.5 miCalmFog-RainHeavy Rain
1:28 AM77.0 °F75.2 °F94 %29.84 in0.5 miCalmFog-RainHeavy Rain
1:33 AM77.0 °F75.2 °F94 %29.83 in0.5 miVariable3.5 mphFog-RainHeavy Rain
1:33 AM77.0 °F75.2 °F94 %29.83 in0.5 miVariable3.5 mphFog-RainHeavy Rain
1:53 AM75.2 °F73.4 °F94 %29.84 in1.0 miNorth (350°)1.2 mphRainHeavy Rain
1:53 AM75.2 °F73.4 °F94 %29.84 in1.0 miNorth (350°)1.2 mphRainHeavy Rain
1:58 AM74.8 °F73.4 °F95 %29.81 in1.0 miWNW (300°)3.5 mph0.78 inRainHeavy Rain
1:58 AM74.8 °F73.4 °F95 %29.81 in1.0 miWNW (300°)3.5 mph0.78 inRainHeavy Rain
2:03 AM75.2 °F73.4 °F94 %29.83 in1.2 miWest (280°)8.1 mphRainHeavy Rain
2:03 AM75.2 °F73.4 °F94 %29.83 in1.2 miWest (280°)8.1 mphRainHeavy Rain
2:08 AM75.2 °F73.4 °F94 %29.83 in1.0 miWest (280°)6.9 mphRainHeavy Rain
2:08 AM75.2 °F73.4 °F94 %29.83 in1.0 miWest (280°)6.9 mphRainHeavy Rain
2:13 AM75.2 °F73.4 °F94 %29.83 in1.2 miWNW (300°)8.1 mphRainHeavy Rain
2:13 AM75.2 °F73.4 °F94 %29.83 in1.2 miWNW (300°)8.1 mphRainHeavy Rain
2:18 AM75.2 °F73.4 °F94 %29.82 in2.5 miNW (310°)9.2 mphRainRain
2:18 AM75.2 °F73.4 °F94 %29.82 in2.5 miNW (310°)9.2 mphRainRain
2:23 AM75.2 °F73.4 °F94 %29.82 in4.0 miWNW (300°)5.8 mphRainRain
2:23 AM75.2 °F73.4 °F94 %29.82 in4.0 miWNW (300°)5.8 mphRainRain
2:28 AM73.4 °F73.4 °F100 %29.82 in4.0 miWest (280°)5.8 mphRainRain
2:28 AM73.4 °F73.4 °F100 %29.82 in4.0 miWest (280°)5.8 mphRainRain
2:33 AM73.4 °F73.4 °F100 %29.81 in2.5 miWNW (290°)6.9 mphRainRain
2:33 AM73.4 °F73.4 °F100 %29.81 in2.5 miWNW (290°)6.9 mphRainRain
2:38 AM73.4 °F73.4 °F100 %29.81 in3.0 miWest (280°)8.1 mphRainLight Rain
2:38 AM73.4 °F73.4 °F100 %29.81 in3.0 miWest (280°)8.1 mphRainLight Rain
2:53 AM73.4 °F73.4 °F100 %29.80 in10.0 miWNW (300°)9.2 mphRainLight Rain
2:53 AM73.4 °F73.4 °F100 %29.80 in10.0 miWNW (300°)9.2 mphRainLight Rain
2:58 AM74.1 °F73.2 °F97 %29.77 in10.0 miWNW (300°)10.4 mph0.19 inRainLight Rain
2:58 AM74.1 °F73.2 °F97 %29.77 in10.0 miWNW (300°)10.4 mph0.19 inRainLight Rain
3:03 AM73.4 °F73.4 °F100 %29.80 in10.0 miWNW (300°)10.4 mphRainLight Rain
3:03 AM73.4 °F73.4 °F100 %29.80 in10.0 miWNW (300°)10.4 mphRainLight Rain
3:54 AM75.2 °F73.4 °F94 %29.79 in10.0 miWNW (300°)10.4 mphScattered Clouds
3:54 AM75.2 °F73.4 °F94 %29.79 in10.0 miWNW (300°)10.4 mphScattered Clouds
3:58 AM74.3 °F73.4 °F97 %29.76 in10.0 miWNW (300°)10.4 mph0.01 inScattered Clouds
3:58 AM74.3 °F73.4 °F97 %29.76 in10.0 miWNW (300°)10.4 mph0.01 inScattered Clouds
3:59 AM75.2 °F73.4 °F94 %29.79 in10.0 miWNW (290°)10.4 mphRainLight Rain
3:59 AM75.2 °F73.4 °F94 %29.79 in10.0 miWNW (290°)10.4 mphRainLight Rain
4:23 AM75.2 °F73.4 °F94 %29.79 in10.0 miWNW (290°)10.4 mphScattered Clouds
4:23 AM75.2 °F73.4 °F94 %29.79 in10.0 miWNW (290°)10.4 mphScattered Clouds
4:43 AM75.2 °F73.4 °F94 %29.79 in10.0 miWNW (300°)10.4 mphLight Drizzle
4:43 AM75.2 °F73.4 °F94 %29.79 in10.0 miWNW (300°)10.4 mphLight Drizzle
4:48 AM75.2 °F73.4 °F94 %29.79 in10.0 miWNW (290°)10.4 mphLight Drizzle
4:48 AM75.2 °F73.4 °F94 %29.79 in10.0 miWNW (290°)10.4 mphLight Drizzle
4:53 AM75.2 °F73.4 °F94 %29.78 in10.0 miWest (280°)9.2 mphLight Drizzle
4:53 AM75.2 °F73.4 °F94 %29.78 in10.0 miWest (280°)9.2 mphLight Drizzle
4:58 AM74.8 °F73.9 °F97 %29.75 in10.0 miWest (280°)9.2 mph0.01 inLight Drizzle
4:58 AM74.8 °F73.9 °F97 %29.75 in10.0 miWest (280°)9.2 mph0.01 inLight Drizzle
5:03 AM75.2 °F73.4 °F94 %29.78 in10.0 miWest (280°)9.2 mphLight Drizzle
5:03 AM75.2 °F73.4 °F94 %29.78 in10.0 miWest (280°)9.2 mphLight Drizzle
5:04 AM75.2 °F73.4 °F94 %29.78 in10.0 miWest (280°)9.2 mphOvercast
5:04 AM75.2 °F73.4 °F94 %29.78 in10.0 miWest (280°)9.2 mphOvercast
5:05 AM75.2 °F73.4 °F94 %29.78 in10.0 miWest (280°)10.4 mphLight Drizzle
5:05 AM75.2 °F73.4 °F94 %29.78 in10.0 miWest (280°)10.4 mphLight Drizzle
5:20 AM75.2 °F75.2 °F100 %29.79 in10.0 miWNW (290°)11.5 mphRainLight Rain
5:20 AM75.2 °F75.2 °F100 %29.79 in10.0 miWNW (290°)11.5 mphRainLight Rain
5:44 AM75.2 °F75.2 °F100 %29.79 in10.0 miNNW (330°)15.0 mph23.0 mphRainLight Rain
5:44 AM75.2 °F75.2 °F100 %29.79 in10.0 miNNW (330°)15.0 mph23.0 mphRainLight Rain
5:49 AM75.2 °F75.2 °F100 %29.79 in10.0 miNNW (330°)12.7 mphRainLight Rain
5:49 AM75.2 °F75.2 °F100 %29.79 in10.0 miNNW (330°)12.7 mphRainLight Rain
5:54 AM75.2 °F75.2 °F100 %29.79 in10.0 miNW (320°)16.1 mphLight Drizzle
5:54 AM75.2 °F75.2 °F100 %29.79 in10.0 miNW (320°)16.1 mphLight Drizzle
5:58 AM75.2 °F75.2 °F100 %29.76 in10.0 miNW (320°)15.0 mph0.02 inLight Drizzle
5:58 AM75.2 °F75.2 °F100 %29.76 in10.0 miNW (320°)15.0 mph0.02 inLight Drizzle
6:08 AM75.2 °F75.2 °F100 %29.78 in10.0 miNW (310°)11.5 mphRainLight Rain
6:08 AM75.2 °F75.2 °F100 %29.78 in10.0 miNW (310°)11.5 mphRainLight Rain
6:18 AM75.2 °F75.2 °F100 %29.78 in10.0 miNW (320°)11.5 mphRainLight Rain
6:18 AM75.2 °F75.2 °F100 %29.78 in10.0 miNW (320°)11.5 mphRainLight Rain
6:23 AM75.2 °F75.2 °F100 %29.78 in10.0 miNW (320°)10.4 mphRainLight Rain
6:23 AM75.2 °F75.2 °F100 %29.78 in10.0 miNW (320°)10.4 mphRainLight Rain
6:24 AM75.2 °F75.2 °F100 %29.78 in10.0 miNW (320°)10.4 mphMostly Cloudy
6:24 AM75.2 °F75.2 °F100 %29.78 in10.0 miNW (320°)10.4 mphMostly Cloudy
6:28 AM75.2 °F75.2 °F100 %29.78 in10.0 miNW (320°)10.4 mphLight Drizzle
6:28 AM75.2 °F75.2 °F100 %29.78 in10.0 miNW (320°)10.4 mphLight Drizzle
6:38 AM75.2 °F73.4 °F94 %29.78 in10.0 miNW (310°)9.2 mphMostly Cloudy
6:38 AM75.2 °F73.4 °F94 %29.78 in10.0 miNW (310°)9.2 mphMostly Cloudy
6:43 AM75.2 °F75.2 °F100 %29.78 in10.0 miWNW (300°)12.7 mphMostly Cloudy
6:43 AM75.2 °F75.2 °F100 %29.78 in10.0 miWNW (300°)12.7 mphMostly Cloudy
6:48 AM77.0 °F75.2 °F94 %29.78 in10.0 miWNW (300°)13.8 mphMostly Cloudy
6:48 AM77.0 °F75.2 °F94 %29.78 in10.0 miWNW (300°)13.8 mphMostly Cloudy
6:53 AM77.0 °F75.2 °F94 %29.78 in10.0 miWNW (300°)12.7 mphMostly Cloudy
6:53 AM77.0 °F75.2 °F94 %29.78 in10.0 miWNW (300°)12.7 mphMostly Cloudy
6:55 AM77.0 °F75.2 °F94 %29.78 in10.0 miWNW (300°)13.8 mphRainLight Rain
6:55 AM77.0 °F75.2 °F94 %29.78 in10.0 miWNW (300°)13.8 mphRainLight Rain
6:58 AM77.0 °F75.2 °F94 %29.75 in10.0 miWNW (300°)12.7 mph0.01 inRainLight Rain
6:58 AM77.0 °F75.2 °F94 %29.75 in10.0 miWNW (300°)12.7 mph0.01 inRainLight Rain
7:13 AM77.0 °F75.2 °F94 %29.78 in9.0 miWNW (290°)12.7 mphRainLight Rain
7:13 AM77.0 °F75.2 °F94 %29.78 in9.0 miWNW (290°)12.7 mphRainLight Rain
7:18 AM77.0 °F75.2 °F94 %29.78 in6.0 miNW (310°)8.1 mphRainRain
7:18 AM77.0 °F75.2 °F94 %29.78 in6.0 miNW (310°)8.1 mphRainRain
7:23 AM77.0 °F75.2 °F94 %29.78 in6.0 miNNW (340°)6.9 mphRainLight Rain
7:23 AM77.0 °F75.2 °F94 %29.78 in6.0 miNNW (340°)6.9 mphRainLight Rain
7:28 AM77.0 °F75.2 °F94 %29.78 in8.0 miNW (320°)15.0 mph18.4 mphRainLight Rain
7:28 AM77.0 °F75.2 °F94 %29.78 in8.0 miNW (320°)15.0 mph18.4 mphRainLight Rain
7:33 AM77.0 °F75.2 °F94 %29.78 in6.0 miNW (320°)13.8 mph18.4 mphRainLight Rain
7:33 AM77.0 °F75.2 °F94 %29.78 in6.0 miNW (320°)13.8 mph18.4 mphRainLight Rain
7:43 AM77.0 °F75.2 °F94 %29.77 in8.0 miNNW (330°)13.8 mphRainLight Rain
7:43 AM77.0 °F75.2 °F94 %29.77 in8.0 miNNW (330°)13.8 mphRainLight Rain
7:48 AM77.0 °F75.2 °F94 %29.77 in2.5 miNNW (340°)12.7 mphRainHeavy Rain
7:48 AM77.0 °F75.2 °F94 %29.77 in2.5 miNNW (340°)12.7 mphRainHeavy Rain
7:53 AM77.0 °F75.2 °F94 %29.77 in1.5 miNNW (330°)12.7 mphRainHeavy Rain
7:53 AM77.0 °F75.2 °F94 %29.77 in1.5 miNNW (330°)12.7 mphRainHeavy Rain
7:58 AM77.0 °F75.2 °F94 %29.73 in2.0 miNW (310°)10.4 mph0.15 inRainHeavy Rain
7:58 AM77.0 °F75.2 °F94 %29.73 in2.0 miNW (310°)10.4 mph0.15 inRainHeavy Rain
8:13 AM75.2 °F75.2 °F100 %29.76 in3.0 miNW (310°)10.4 mphRainLight Rain
8:13 AM75.2 °F75.2 °F100 %29.76 in3.0 miNW (310°)10.4 mphRainLight Rain
8:28 AM77.0 °F75.2 °F94 %29.75 in5.0 miWest (270°)9.2 mphRainLight Rain
8:28 AM77.0 °F75.2 °F94 %29.75 in5.0 miWest (270°)9.2 mphRainLight Rain
8:33 AM77.0 °F75.2 °F94 %29.75 in2.5 miWSW (250°)8.1 mphRainRain
8:33 AM77.0 °F75.2 °F94 %29.75 in2.5 miWSW (250°)8.1 mphRainRain
8:38 AM77.0 °F75.2 °F94 %29.75 in3.0 miSW (230°)6.9 mphRainLight Rain
8:38 AM77.0 °F75.2 °F94 %29.75 in3.0 miSW (230°)6.9 mphRainLight Rain
8:45 AM77.0 °F75.2 °F94 %29.75 in9.0 miSW (230°)8.1 mphOvercast
8:45 AM77.0 °F75.2 °F94 %29.75 in9.0 miSW (230°)8.1 mphOvercast
8:50 AM77.0 °F75.2 °F94 %29.75 in10.0 miSW (230°)6.9 mphOvercast
8:50 AM77.0 °F75.2 °F94 %29.75 in10.0 miSW (230°)6.9 mphOvercast
8:52 AM77.0 °F75.2 °F94 %29.75 in10.0 miWSW (240°)6.9 mphLight Drizzle
8:52 AM77.0 °F75.2 °F94 %29.75 in10.0 miWSW (240°)6.9 mphLight Drizzle
8:58 AM77.2 °F76.1 °F96 %29.72 in7.0 miVariable4.6 mph0.10 inLight Drizzle
8:58 AM77.2 °F76.1 °F96 %29.72 in7.0 miVariable4.6 mph0.10 inLight Drizzle
9:03 AM77.0 °F77.0 °F100 %29.75 in6.0 miSouth (190°)8.1 mphLight Drizzle
9:03 AM77.0 °F77.0 °F100 %29.75 in6.0 miSouth (190°)8.1 mphLight Drizzle
9:05 AM77.0 °F77.0 °F100 %29.76 in7.0 miSSW (200°)9.2 mphOvercast
9:05 AM77.0 °F77.0 °F100 %29.76 in7.0 miSSW (200°)9.2 mphOvercast
9:07 AM77.0 °F77.0 °F100 %29.76 in7.0 miSSW (210°)9.2 mphLight Drizzle
9:07 AM77.0 °F77.0 °F100 %29.76 in7.0 miSSW (210°)9.2 mphLight Drizzle
9:09 AM77.0 °F77.0 °F100 %29.76 in9.0 miSSW (210°)11.5 mphOvercast
9:09 AM77.0 °F77.0 °F100 %29.76 in9.0 miSSW (210°)11.5 mphOvercast
9:19 AM78.8 °F77.0 °F94 %29.76 in10.0 miSSW (200°)12.7 mphOvercast
9:19 AM78.8 °F77.0 °F94 %29.76 in10.0 miSSW (200°)12.7 mphOvercast
9:26 AM78.8 °F77.0 °F94 %29.77 in7.0 miSSW (200°)13.8 mphLight Drizzle
9:26 AM78.8 °F77.0 °F94 %29.77 in7.0 miSSW (200°)13.8 mphLight Drizzle
9:58 AM77.5 °F76.1 °F95 %29.75 in6.0 miSSW (210°)17.3 mph0.01 inRainLight Rain
9:58 AM77.5 °F76.1 °F95 %29.75 in6.0 miSSW (210°)17.3 mph0.01 inRainLight Rain
10:01 AM77.0 °F77.0 °F100 %29.77 in7.0 miSSW (200°)17.3 mphOvercast
10:01 AM77.0 °F77.0 °F100 %29.77 in7.0 miSSW (200°)17.3 mphOvercast
10:11 AM77.0 °F75.2 °F94 %29.78 in10.0 miSouth (190°)16.1 mph23.0 mphOvercast
10:11 AM77.0 °F75.2 °F94 %29.78 in10.0 miSouth (190°)16.1 mph23.0 mphOvercast
10:21 AM78.8 °F75.2 °F89 %29.78 in10.0 miSouth (190°)16.1 mphOvercast
10:21 AM78.8 °F75.2 °F89 %29.78 in10.0 miSouth (190°)16.1 mphOvercast
10:24 AM78.8 °F75.2 °F89 %29.78 in8.0 miSouth (190°)17.3 mphRainLight Rain
10:24 AM78.8 °F75.2 °F89 %29.78 in8.0 miSouth (190°)17.3 mphRainLight Rain
10:34 AM78.8 °F75.2 °F89 %29.79 in9.0 miSSW (200°)15.0 mphOvercast
10:34 AM78.8 °F75.2 °F89 %29.79 in9.0 miSSW (200°)15.0 mphOvercast
10:39 AM78.8 °F75.2 °F89 %29.79 in10.0 miSSW (210°)11.5 mphMostly Cloudy
10:39 AM78.8 °F75.2 °F89 %29.79 in10.0 miSSW (210°)11.5 mphMostly Cloudy
10:58 AM78.4 °F75.6 °F91 %29.77 in10.0 miSSW (210°)17.3 mph0.00 inMostly Cloudy
10:58 AM78.4 °F75.6 °F91 %29.77 in10.0 miSSW (210°)17.3 mph0.00 inMostly Cloudy
11:03 AM78.8 °F75.2 °F89 %29.80 in10.0 miSSW (210°)13.8 mphMostly Cloudy
11:03 AM78.8 °F75.2 °F89 %29.80 in10.0 miSSW (210°)13.8 mphMostly Cloudy
11:23 AM78.8 °F75.2 °F89 %29.80 in10.0 miSSW (200°)13.8 mphScattered Clouds
11:23 AM78.8 °F75.2 °F89 %29.80 in10.0 miSSW (200°)13.8 mphScattered Clouds
11:58 AM81.0 °F74.8 °F82 %29.77 in10.0 miSouth (180°)12.7 mphMostly Cloudy
11:58 AM81.0 °F74.8 °F82 %29.77 in10.0 miSouth (180°)12.7 mphMostly Cloudy
12:03 PM80.6 °F75.2 °F84 %29.80 in10.0 miSouth (180°)10.4 mphScattered Clouds
12:03 PM80.6 °F75.2 °F84 %29.80 in10.0 miSouth (180°)10.4 mphScattered Clouds
12:58 PM82.2 °F75.6 °F80 %29.76 in10.0 miSSE (150°)13.8 mphMostly Cloudy
12:58 PM82.2 °F75.6 °F80 %29.76 in10.0 miSSE (150°)13.8 mphMostly Cloudy
1:58 PM82.6 °F75.0 °F78 %29.75 in10.0 miSSE (160°)11.5 mphScattered Clouds
1:58 PM82.6 °F75.0 °F78 %29.75 in10.0 miSSE (160°)11.5 mphScattered Clouds
2:03 PM82.4 °F75.2 °F79 %29.78 in10.0 miSSE (150°)15.0 mphMostly Cloudy
2:03 PM82.4 °F75.2 °F79 %29.78 in10.0 miSSE (150°)15.0 mphMostly Cloudy
2:38 PM82.4 °F75.2 °F79 %29.78 in10.0 miSSE (160°)10.4 mphScattered Clouds
2:38 PM82.4 °F75.2 °F79 %29.78 in10.0 miSSE (160°)10.4 mphScattered Clouds
2:43 PM82.4 °F75.2 °F79 %29.78 in10.0 miSSE (150°)12.7 mphMostly Cloudy
2:43 PM82.4 °F75.2 °F79 %29.78 in10.0 miSSE (150°)12.7 mphMostly Cloudy
2:58 PM83.1 °F74.5 °F75 %29.76 in10.0 miSSE (160°)10.4 mphMostly Cloudy
2:58 PM83.1 °F74.5 °F75 %29.76 in10.0 miSSE (160°)10.4 mphMostly Cloudy
3:58 PM83.1 °F74.3 °F75 %29.75 in10.0 miSouth (170°)10.4 mphScattered Clouds
3:58 PM83.1 °F74.3 °F75 %29.75 in10.0 miSouth (170°)10.4 mphScattered Clouds
4:28 PM82.4 °F75.2 °F79 %29.78 in10.0 miSouth (170°)12.7 mphMostly Cloudy
4:28 PM82.4 °F75.2 °F79 %29.78 in10.0 miSouth (170°)12.7 mphMostly Cloudy
4:33 PM82.4 °F75.2 °F79 %29.78 in10.0 miSouth (170°)10.4 mphScattered Clouds
4:33 PM82.4 °F75.2 °F79 %29.78 in10.0 miSouth (170°)10.4 mphScattered Clouds
4:58 PM82.4 °F73.6 °F75 %29.74 in10.0 miSouth (170°)12.7 mphPartly Cloudy
4:58 PM82.4 °F73.6 °F75 %29.74 in10.0 miSouth (170°)12.7 mphPartly Cloudy
5:58 PM80.2 °F74.1 °F82 %29.75 in10.0 miSouth (180°)10.4 mphClear
5:58 PM80.2 °F74.1 °F82 %29.75 in10.0 miSouth (180°)10.4 mphClear
6:58 PM79.0 °F74.1 °F85 %29.77 in10.0 miSouth (190°)6.9 mphPartly Cloudy
6:58 PM79.0 °F74.1 °F85 %29.77 in10.0 miSouth (190°)6.9 mphPartly Cloudy
7:58 PM78.3 °F74.1 °F87 %29.79 in10.0 miCalmClear
7:58 PM78.3 °F74.1 °F87 %29.79 in10.0 miCalmClear
8:58 PM77.0 °F73.9 °F90 %29.82 in10.0 miWSW (240°)1.2 mphPartly Cloudy
8:58 PM77.0 °F73.9 °F90 %29.82 in10.0 miWSW (240°)1.2 mphPartly Cloudy
9:58 PM78.1 °F73.9 °F87 %29.83 in10.0 miSSE (150°)2.3 mphClear
9:58 PM78.1 °F73.9 °F87 %29.83 in10.0 miSSE (150°)2.3 mphClear
Hourly data recorded from PGUA, located miles away from Pyga Beach, Guam







STORIES FROM OUR PARTNERS